Flag for Mexico Weather past 2 weeks in Guadalajara, Jalisco, Mexico

Now
66 °F

Sunny.


Feels Like: 66 °F
Forecast: 58 / 81 °F
Wind: No wind

Location: Don Miguel / Guadalaj

Current Time: Aug 28, 2015 at 10:45:15 AM

Latest Report: Aug 28, 2015 at 8:49 AM


Visibility: 8 mi

Pressure: 30.21 "Hg (25.22 "Hg at 1543m altitude)

Humidity: 73%

Dew point: 57 °F

Location of GuadalajaraLocation

Historic Weather in Guadalajara — Graph

°F

Guadalajara temperature yesterday

Maximum temperature yesterday: 81 °F (at 3:47 PM)
Minimum temperature yesterday: 57 °F (at 7:50 AM)
Average temperature yesterday: 69 °F

Past Weeks' High & Low Weather Summary

 TemperatureHumidityPressure
High84 °F (Aug 15, 5:46 PM)94% (Aug 17, 12:49 AM)30.30 "Hg (Aug 17, 12:49 AM)
Low57 °F (Aug 18, 4:45 AM)29% (Aug 21, 5:45 PM)29.75 "Hg (Aug 21, 3:46 PM)
Average69 °F70%30.09 "Hg
* Reported Aug 13 8:45 AM — Aug 28 8:49 AM, Guadalajara, Weather by CustomWeather, © 2015

Note: Actual official high and low records may vary slightly from our data, if they occured in-between our weather recording intervals... More about our weather records

Advertising

Guadalajara weather history for previous 24 hours

 ConditionsComfort  
Time TempWeatherWind HumidityBarometerVisibility
8:49 AM
Fri, Aug 28
66 °FSunny.No wind73%30.21 "Hg8 mi
7:47 AM57 °FClear.No wind94%30.19 "Hg10 mi
6:50 AM57 °FClear.No wind94%29.87 "Hg10 mi
5:54 AM59 °FPassing clouds.No wind94%30.16 "Hg10 mi
4:53 AM61 °FPassing clouds.2 mph88%30.19 "Hg10 mi
3:46 AM63 °FPassing clouds.No wind88%29.88 "Hg10 mi
1:46 AM64 °FPassing clouds.No wind83%30.20 "Hg10 mi
12:50 AM64 °FPassing clouds.No wind88%29.89 "Hg10 mi
11:54 PM
Thu, Aug 27
66 °FPassing clouds.No wind83%30.20 "Hg10 mi
10:51 PM66 °FPassing clouds.No wind83%30.18 "Hg10 mi
9:47 PM68 °FPassing clouds.No wind73%29.87 "Hg10 mi
7:45 PM75 °FPartly sunny.7 mph54%30.11 "Hg10 mi
5:47 PM79 °FScattered clouds.8 mph45%30.12 "Hg10 mi
4:48 PM81 °FScattered clouds.10 mph34%30.14 "Hg10 mi
3:47 PM81 °FPartly sunny.8 mph42%29.83 "Hg10 mi
2:51 PM79 °FPartly sunny.No wind42%30.20 "Hg10 mi
12:51 PM75 °FPartly sunny.5 mph54%29.95 "Hg10 mi
11:49 AM73 °FPassing clouds.No wind57%30.28 "Hg10 mi
10:49 AM70 °FSunny.6 mph64%30.28 "Hg10 mi
Weather by CustomWeather, © 2015

See weather overviewHow to use our weather pages